Find Starlink 4339

NORAD ID: 53054 Int'l Des: 2022-077 Owner: SPXS Country: US Constellation: starlink operational
LEOCIRCULARRETROGRADESSO

当前视图

正在加载3D地球...

About Starlink 4339

Starlink 4339 (NORAD 53054) is a starlink constellation satellite (v1.5) launched Jul 11, 2022 by SPXS of US. It operates in LEO, CIRCULAR, RETROGRADE, SSO orbit with a mass of 297.00 kg.

即将过境

Passes for default location (London). Set your location on the main map for personalized predictions.

高度历史

Loading altitude history...

两行轨道根数

1 53054U 22077M 26263.54712906 .00000042 00000-0 36188-5 0 9995
2 53054 97.2855 79.2448 0000978 101.8500 258.2852 15.33436412230355
Epoch: Sep 20, 2026 • Age: 32 hours

当前状态

高度 490.2 km
远地点 / 近地点 N/A
速度 7.62 km/s
星下点 -62.69°S, 77.13°W
发射日期 Jul 11, 2022
运行时间 4.1 years
类型 internet

技术详情

分类 Payload
质量 297.00 kg
干质量 275.00 kg
长度 0.20 m
跨度 9.00 m
形状 ? Box + pan
制造商 SPXS
平台类型 Starlink
阶段状态 In Orbit
所有者/国家 SPXS/US

Most Searched